Regional Weather Roundup
Issued by NWS

Home | Current Version | Previous Version | Graphics & Text | Print | Product List | Glossary On
Versions: 1 2 3 4 5 6 7 8 9 10 11 12 13 14 15 16 17 18 19 20 21 22 23 24 25 26 27 28 29 30 31 32 33 34 35 36 37 38 39 40 41 42 43 44 45 46 47 48 49 50
000
ASUS45 KBOU 291707
RWRCO

WEATHER ROUNDUP FOR COLORADO
NATIONAL WEATHER SERVICE DENVER/BOULDER CO
1100 AM MDT FRI MAY 29 2015

NOTE: "FAIR" INDICATES FEW OR NO CLOUDS BELOW 12000 FEET WITH NO
SIGNIFICANT WEATHER AND/OR OBSTRUCTIONS TO VISIBILITY.

COZ001>005-013-030-031-291800-
...NORTHWEST COLORADO...

CITY           SKY/WX    TMP DP  RH WIND       PRES   REMARKS
CRAIG          CLOUDY    54  42  64 W6        30.31R
HAYDEN         PTSUNNY   52  37  58 W3        30.31S
MEEKER         PTSUNNY   55  39  54 E3        30.30S
MOUNT WERNER   NOT AVBL
STEAMBOAT SPGS CLOUDY    49  39  67 NW3       30.32S
WALDEN         CLOUDY    43  36  75 NW8       30.33R
$$

COZ006>008-011-291800-
...WEST CENTRAL VALLEYS...

CITY           SKY/WX    TMP DP  RH WIND       PRES   REMARKS
GRAND JUNCTION SUNNY     63  42  46 VRB3      30.23S
MONTROSE       SUNNY     61  41  47 VRB3      30.27F
EAGLE          MOSUNNY   64  39  39 CALM      30.31F
RIFLE          MOSUNNY   60  38  43 VRB3      30.26F
DELTA          SUNNY     64  42  43 CALM      30.25F
NUCLA          SUNNY     61  41  48 CALM      30.29S
$$

COZ017>023-064>068-291800-
...SOUTHWEST COLORADO...

CITY           SKY/WX    TMP DP  RH WIND       PRES   REMARKS
DURANGO        SUNNY     65  35  33 VRB7      30.24S
CORTEZ         SUNNY     67  31  26 VRB5G16   30.22F
PAGOSA SPRINGS SUNNY     61  24  23 W8        30.28S
TELLURIDE      SUNNY     53  29  39 SW7       30.38R
WOLF CREEK PAS NOT AVBL
$$

COZ009-010-012-014-032>034-037-058>063-291800-
...CENTRAL COLORADO...

CITY           SKY/WX    TMP DP  RH WIND       PRES   REMARKS
ASPEN          MOSUNNY   55  29  36 VRB6      30.31R
BUENA VISTA    PTSUNNY   56  25  30 CALM      30.29R
COPPER MTN     CLOUDY    37  28  70 W12       30.45S
BERTHOUD PASS  HAZE      25  18  74 NW16G22   30.46R VSB<1/4 WCI  12
COTTONWOOD PAS MOSUNNY   54  27  35 N3        30.37R
GUNNISON       SUNNY     50  36  57 SE5       30.35F
KREMMLING      CLOUDY    50  36  57 CALM      30.33S
LEADVILLE      CLOUDY    44  26  49 W9        30.36R
MONARCH PASS   PTSUNNY   32  28  86 MISG      30.56R
SALIDA         MOSUNNY   63  29  27 N6        30.34S
SUNLIGHT       CLOUDY    41  32  70 W3        30.47R
WILKERSON PASS PTSUNNY   41  25  52 SW3       30.44S
$$

COZ069>075-291800-
...SAN LUIS VALLEY/SANGRE DE CRISTO MOUNTAINS...

CITY           SKY/WX    TMP DP  RH WIND       PRES   REMARKS
ALAMOSA        SUNNY     61  31  32 NE7       30.27F
LA VETA PASS   SUNNY    N/A N/A N/A MISG      30.38R
SAGUACHE       SUNNY     55  32  41 NW10      30.30S
$$

COZ035-036-038>040-291800-
...NORTHERN COLORADO FRONT RANGE...

CITY           SKY/WX    TMP DP  RH WIND       PRES   REMARKS
DENVER INTL AP PTSUNNY   62  45  53 NE10      30.21S
DMNS CITY PARK   N/A     62  39  42 E8        30.20S
AURORA         MOSUNNY   60  42  51 NE7       30.22F
FRONT RANGE AP PTSUNNY   63  46  55 NE9G15    30.22S
ERIE MUNI ARPT CLOUDY    64  41  42 E5        30.20S
BOULDER MUN AP PTSUNNY   64  43  45 E7        30.20S
CENTENNIAL     MOSUNNY   60  40  47 VRB3      30.22S
BROOMFIELD     PTSUNNY   59  39  47 MISG      30.22S
FORT COLLINS   MOSUNNY   63  43  48 CALM      30.21S
LONGMONT       PTSUNNY   69  45  42 E6        30.21S
$$

COZ041-046-047-076>085-087-088-291800-
...PIKES PEAK/PALMER DIVIDE AND SOUTHERN FOOTHILLS...

CITY           SKY/WX    TMP DP  RH WIND       PRES   REMARKS
COLO. SPRINGS  PTSUNNY   62  39  42 SE6       30.22R
A. F. ACADEMY  MOSUNNY   59  37  42 E5        30.22S
ELLICOTT       PTSUNNY  N/A N/A N/A VRB6      30.21R
FALCON         MOSUNNY   58  33  38 N9        30.26R
FORT CARSON    PTSUNNY   63  43  48 VRB6      30.20S
LIMON          SUNNY     61  47  59 N20       30.20R
MONUMENT HILL  SUNNY     55  37  50 SW8       30.26F
TRINIDAD       SUNNY     63  46  54 VRB5      30.19S
$$

COZ042>045-048>051-090-091-291800-
...NORTHEAST COLORADO...

CITY           SKY/WX    TMP DP  RH WIND       PRES   REMARKS
GREELEY ARPT   MOSUNNY   63  43  48 NW7       30.19F
AKRON          MOSUNNY   62  51  67 N18       30.17S
BURLINGTON     MOSUNNY   67  50  54 N16G25    30.13S
WRAY           MOSUNNY   68  53  59 N12       30.12S
STERLING       MOSUNNY   63  52  67 N12       30.14S
HOLYOKE        PTSUNNY   66  52  59 NW15G21   30.12S
FORT MORGAN    MOSUNNY   65  48  55 N7        30.18F
$$

COZ086-089-092>099-291800-
...SOUTHEAST COLORADO...

CITY           SKY/WX    TMP DP  RH WIND       PRES   REMARKS
PUEBLO         SUNNY     67  47  48 VRB5      30.15S
LA JUNTA       SUNNY     71  46  40 N10       30.13S
LAMAR          MOSUNNY   70  51  51 N13       30.10S
SPRINGFIELD      N/A     68  52  56 N16       30.12R
$$


USA.gov is the U.S. government's official web portal to all federal, state and local government web resources and services.